Wallops Island, VA

8:26 AM EDT on May 26, 2017 (GMT -0400)
Wallops Flight Facility

Weather History for KWAL - February, 2014

Change the Weather History Date:

Sunday, February 2, 2014

  Actual Average Record
Temperature  
Mean Temperature 48 °F 37 °F  
Max Temperature 60 °F 45 °F 69 °F (1990)
Min Temperature 35 °F 29 °F 8 °F (1971)
Degree Days  
Heating Degree Days 17    
Month to date heating degree days 44  
Since 1 July heating degree days 2301  
Cooling Degree Days 0    
Month to date cooling degree days 0  
Year to date cooling degree days 0  
Moisture  
Dew Point 40 °F    
Average Humidity 77    
Maximum Humidity 100    
Minimum Humidity 53    
Precipitation  
Precipitation T in 0.10 in 0.60 in (1999)
Month to date precipitation 0.21 0.20  
Year to date precipitation 3.17 3.24  
Sea Level Pressure  
Sea Level Pressure 30.01 in    
Wind  
Wind Speed 5 mph (WSW)    
Max Wind Speed 13 mph    
Max Gust Speed 17 mph    
Visibility 5 miles    
Events Rain    
T = Trace of Precipitation, MM = Missing Value Source: NWS Daily Summary

Daily Weather History Graph

Daily Weather History Graph

Search for Another Location

Airport or City:

Trip Planner

Search our weather history database for the weather conditions in past years. The results will help you decide how hot, cold, wet, or windy it might be!

Date:

Astronomy

Feb. 02, 2014 Rise Set
Actual Time 7:05 AM EST 5:26 PM EST
Civil Twilight 6:37 AM EST 5:53 PM EST
Nautical Twilight 6:06 AM EST 6:25 PM EST
Astronomical Twilight 5:35 AM EST 6:56 PM EST
Moon 8:34 AM EST (2/2) 9:03 PM EST (2/2)
Length of Visible Light 11h 16m
Length of Day
10h 21m
Waxing Crescent, 11% of the Moon is Illuminated
Feb 2
Waxing Crescent
Feb 6
First Quarter
Feb 14
Full
Feb 22
Last Quarter
Mar 1
New

Hourly Weather History & Observations

Time (EST) Temp. Windchill Dew Point Humidity Pressure Visibility Wind Dir Wind Speed Gust Speed Precip Events Conditions
12:05 AM 46.0 °F 43.9 °F 44.1 °F 93% 30.03 in 3.0 mi West 4.6 mph - 0.02 in Rain Light Rain
12:35 AM 45.0 °F 41.2 °F 43.0 °F 93% 30.04 in 4.0 mi WNW 6.9 mph - 0.02 in   Overcast
12:54 AM 44.1 °F 40.8 °F 42.1 °F 93% 30.02 in 2.5 mi WNW 5.8 mph - 0.02 in   Overcast
1:09 AM 43.0 °F 39.5 °F 42.1 °F 97% 30.03 in 2.0 mi WNW 5.8 mph - 0.01 in   Overcast
1:20 AM 43.0 °F 38.8 °F 42.1 °F 97% 30.03 in 1.5 mi WNW 6.9 mph - 0.01 in   Overcast
1:40 AM 43.0 °F 38.8 °F 42.1 °F 97% 30.02 in 2.0 mi West 6.9 mph - 0.01 in   Overcast
1:52 AM 42.8 °F 38.6 °F 42.8 °F 100% 30.02 in 2.5 mi West 6.9 mph - 0.01 in   Overcast
1:54 AM 43.0 °F 38.8 °F 42.1 °F 97% 30.01 in 2.5 mi West 6.9 mph - 0.01 in   Overcast
1:58 AM 43.0 °F 37.7 °F 42.1 °F 97% 30.02 in 3.0 mi WNW 9.2 mph - N/A   Overcast
2:11 AM 43.0 °F 38.8 °F 41.0 °F 93% 30.02 in 2.5 mi West 6.9 mph - N/A   Overcast
2:17 AM 43.0 °F 38.8 °F 41.0 °F 93% 30.02 in 2.0 mi West 6.9 mph - N/A   Overcast
2:24 AM 43.0 °F 39.5 °F 42.1 °F 97% 30.01 in 1.8 mi WNW 5.8 mph - N/A   Overcast
2:48 AM 42.8 °F 40.1 °F 42.8 °F 100% 30.01 in 2.5 mi West 4.6 mph - N/A   Overcast
2:52 AM 42.8 °F 41.1 °F 42.8 °F 100% 30.01 in 3.0 mi WNW 3.5 mph - N/A   Overcast
2:54 AM 43.0 °F 40.3 °F 42.1 °F 97% 30.00 in 3.0 mi WNW 4.6 mph - N/A   Overcast
3:06 AM 43.0 °F 41.3 °F 42.1 °F 97% 30.00 in 5.0 mi West 3.5 mph - N/A   Overcast
3:27 AM 43.0 °F 40.3 °F 42.1 °F 97% 30.00 in 4.0 mi SSW 4.6 mph - N/A   Overcast
3:54 AM 42.1 °F 38.4 °F 41.0 °F 96% 29.99 in 4.0 mi SW 5.8 mph - N/A   Mostly Cloudy
4:11 AM 42.1 °F 38.4 °F 39.9 °F 92% 29.99 in 4.0 mi SW 5.8 mph - N/A   Mostly Cloudy
4:54 AM 39.9 °F 33.9 °F 39.0 °F 97% 29.98 in 5.0 mi SSW 9.2 mph - N/A   Partly Cloudy
5:54 AM 36.0 °F 32.1 °F 35.1 °F 97% 29.99 in 4.0 mi SSW 4.6 mph - N/A   Clear
6:54 AM 35.1 °F 31.0 °F 35.1 °F 100% 30.00 in 2.0 mi SSW 4.6 mph - N/A   Clear
7:05 AM 36.0 °F 33.3 °F 35.1 °F 97% 30.01 in 3.0 mi South 3.5 mph - N/A   Clear
7:11 AM 35.1 °F 32.2 °F 34.0 °F 96% 30.01 in 2.0 mi South 3.5 mph - N/A   Clear
7:15 AM 35.1 °F - 34.0 °F 96% 30.01 in 1.0 mi Calm Calm - N/A   Clear
7:23 AM 35.1 °F 29.3 °F 34.0 °F 96% 30.02 in 0.8 mi SW 6.9 mph - N/A   Clear
7:28 AM 35.1 °F 28.6 °F 35.1 °F 100% 30.02 in 1.2 mi SW 8.1 mph - N/A   Clear
7:43 AM 36.0 °F 29.6 °F 35.1 °F 97% 30.02 in 1.8 mi SSW 8.1 mph - N/A   Partly Cloudy
7:54 AM 37.0 °F 32.4 °F 36.0 °F 96% 30.01 in 1.2 mi SSW 5.8 mph - N/A   Partly Cloudy
8:03 AM 37.9 °F 34.4 °F 37.0 °F 97% 30.02 in 2.5 mi SSW 4.6 mph - N/A   Partly Cloudy
8:12 AM 37.9 °F 34.4 °F 37.9 °F 100% 30.02 in 4.0 mi SW 4.6 mph - N/A   Partly Cloudy
8:54 AM 41.0 °F - 39.9 °F 96% 30.02 in 5.0 mi Calm Calm - N/A   Clear
9:54 AM 46.0 °F 43.9 °F 43.0 °F 89% 30.03 in 9.0 mi SSW 4.6 mph - N/A   Clear
10:54 AM 54.0 °F - 44.1 °F 69% 30.02 in 10.0 mi Variable 6.9 mph - N/A   Clear
11:54 AM 55.9 °F - 42.1 °F 60% 30.01 in 10.0 mi WNW 9.2 mph - N/A   Clear
12:54 PM 59.0 °F - 42.1 °F 53% 29.99 in 10.0 mi WNW 6.9 mph - N/A   Clear
1:54 PM 50.0 °F - 42.1 °F 74% 29.99 in 10.0 mi SSW 8.1 mph - N/A   Clear
2:54 PM 52.0 °F - 43.0 °F 71% 29.99 in 10.0 mi South 6.9 mph - N/A   Clear
3:54 PM 48.0 °F - 42.1 °F 80% 29.96 in 10.0 mi South 8.1 mph - N/A   Clear
4:54 PM 46.9 °F - 42.1 °F 83% 29.98 in 10.0 mi SSW 5.8 mph - N/A   Clear
5:54 PM 43.0 °F 41.3 °F 39.9 °F 89% 29.98 in 10.0 mi SSW 3.5 mph - N/A   Clear
6:54 PM 42.1 °F 40.2 °F 39.0 °F 89% 30.00 in 10.0 mi SSW 3.5 mph - N/A   Clear
7:54 PM 44.1 °F - 41.0 °F 89% 30.02 in 10.0 mi Calm Calm - N/A   Clear
8:54 PM 42.1 °F - 39.0 °F 89% 30.03 in 9.0 mi Calm Calm - N/A   Clear
9:54 PM 41.0 °F 39.0 °F 37.9 °F 89% 30.03 in 7.0 mi ESE 3.5 mph - N/A   Clear
10:54 PM 41.0 °F - 39.0 °F 93% 30.03 in 3.0 mi Calm Calm - N/A   Clear
11:41 PM 39.0 °F - 37.9 °F 96% 30.03 in 2.0 mi Calm Calm - N/A   Clear
11:44 PM 37.9 °F - 37.0 °F 97% 30.03 in 1.0 mi Calm Calm - N/A   Clear
11:54 PM 39.9 °F - 39.0 °F 97% 30.03 in 1.8 mi Calm Calm - N/A   Clear
11:58 PM 39.0 °F - 37.9 °F 96% 30.03 in 2.5 mi Calm Calm - N/A   Clear